Regional Weather Roundup
Issued by NWS

Home | Current Version | Previous Version | Text Only | Print | Product List | Glossary Off
Versions: 1 2 3 4 5 6 7 8 9 10 11 12 13 14 15 16 17 18 19 20 21 22 23 24 25 26 27 28 29 30 31 32 33 34 35 36 37 38 39 40 41 42 43 44 45 46 47 48 49 50

000
ASUS43 KDMX 041207
RWRIA

WEATHER ROUNDUP FOR IOWA
NATIONAL WEATHER SERVICE DES MOINES IA
700 AM CDT MON MAY 04 2015

NOTE: "FAIR" INDICATES FEW OR NO CLOUDS BELOW 12,000 FEET WITH NO
SIGNIFICANT WEATHER AND/OR OBSTRUCTIONS TO VISIBILITY.

* - THESE STATIONS ARE NOT NWS STATIONS...THUS NOT UNDER NWS
QUALITY CONTROL.  THEY ALSO DO NOT REPORT WEATHER SUCH
AS PRECIPITATION OR FOG.

IAZ001>003-012>014-020>022-031>034-043>046-041300-
   NORTHWEST IOWA

CITY           SKY/WX    TMP DP  RH WIND       PRES   REMARKS
CARROLL *      CLEAR     57  48  72 NE15G22   30.00S
CHEROKEE *     MOCLDY    52  33  47 N12G17    30.05R
DENISON *      CLEAR     55  46  71 NE14G20   30.00R
LE MARS *      CLEAR     50  34  53 N7        30.07R
ORANGE CITY *  CLEAR     50  28  43 NE12      30.07R
SHELDON *      CLEAR     52  32  46 N14       30.06S
SIOUX CITY     MOCLDY    56  32  40 NE9       30.05R
6HR MIN TEMP:  55; 6HR MAX TEMP:  63; 6HR PCP:  0.02;

SPENCER        MOCLDY    49  37  63 N7        30.08R
6HR MIN TEMP:  49; 6HR MAX TEMP:  58;

STORM LAKE *   CLEAR     52  39  62 NE15      30.05S
$$

IAZ055>058-069>071-079>083-090>094-041300-
   SOUTHWEST IOWA

CITY           SKY/WX    TMP DP  RH WIND       PRES   REMARKS
ATLANTIC *     CLEAR     57  52  82 NE14      30.00R
AUDUBON *      CLEAR     57  50  77 N10       30.02R
CLARINDA *     DRIZZLE   61  59  94 NW7       30.03R
COUNCIL BLFS * CLOUDY    57  55  94 CALM      30.06R
CRESTON *      CLEAR     59  57  94 N15       29.97R
HARLAN  *      MOCLDY    57  52  82 NE12G18   30.04R
LAMONI         CLOUDY    64  57  78 CALM      29.95R
6HR MIN TEMP:  62; 6HR MAX TEMP:  70; 6HR PCP:  0.07;

RED OAK *      MOCLDY    59  55  88 VRB6G13   30.02R
SHENANDOAH *   MOCLDY    59  57  94 NW7       30.04R
$$

IAZ047>049-059>061-072>074-084-041300-
   CENTRAL IOWA

CITY           SKY/WX    TMP DP  RH WIND       PRES   REMARKS
AMES           CLOUDY    59  56  89 N13       30.01R
6HR MIN TEMP:  59; 6HR MAX TEMP:  66;

ANKENY *       CLEAR     61  55  82 N10       30.00R
CHARITON *     CLEAR     63  61  94 W6        29.94R
DES MOINES     CLOUDY    62  55  77 N12       29.98R
6HR MIN TEMP:  61; 6HR MAX TEMP:  71;

GRINNELL*      CLOUDY    59  55  88 NE8       29.99R
KNOXVILLE *    CLEAR     61  55  82 E5        29.94R
MARSHALLTOWN   CLOUDY    59  57  93 NE12      29.99S
6HR MIN TEMP:  58; 6HR MAX TEMP:  65; 6HR PCP:  0.29;

PELLA *        CLOUDY    60  59  96 E7        29.96R
PERRY *          N/A     57  54  88 NE15G22   29.99F
$$

IAZ004>006-015-016-023>025-035-036-041300-
   NORTH CENTRAL IOWA

CITY           SKY/WX    TMP DP  RH WIND       PRES   REMARKS
ALGONA *       CLEAR     50  43  76 N10       30.07R
CLARION *      CLEAR     54  54 100 NW6       30.06R
ESTHERVILLE    PTCLDY    49  33  54 N14       30.08R
6HR MIN TEMP:  47; 6HR MAX TEMP:  57;

FORT DODGE *   CLOUDY    55  46  71 N8        30.05S
MASON CITY     MOCLDY    53  48  83 N10       30.07R
6HR MIN TEMP:  52; 6HR MAX TEMP:  59; 6HR PCP:  0.01;

FOREST CITY *  CLEAR     52  45  76 NE9       30.06R
IOWA FALLS *     N/A     57  55  94 N6        30.05R
$$

IAZ007>011-017>019-026>030-037>042-050>054-066-041300-
   NORTHEAST IOWA

CITY           SKY/WX    TMP DP  RH WIND       PRES   REMARKS
CEDAR RAPIDS   CLOUDY    59  57  93 S12       29.98
CHARLES CITY * PTCLDY    55  55 100 N8        30.04R
CLINTON *      CLOUDY    59  55  88 S12       30.00F
DECORAH *      CLOUDY    57  57 100 N9G15     30.02R
DUBUQUE        CLOUDY    58  56  93 N5        30.01R
6HR MIN TEMP:  56; 6HR MAX TEMP:  59; 6HR PCP:  0.07;

MONTICELLO *   PTSUNNY   61  61 100 N7        30.01R
OELWEIN *      CLOUDY    57  57 100 NW3       30.04R FOG
WATERLOO       CLOUDY    58  57  97 N7        30.02R
6HR MIN TEMP:  58; 6HR MAX TEMP:  62; 6HR PCP:  0.19;

$$

IAZ064-065-067-068-078-041300-
   EAST CENTRAL IOWA

CITY           SKY/WX    TMP DP  RH WIND       PRES   REMARKS
DAVENPORT      CLOUDY    60  57  89 S9        30.00R
6HR MIN TEMP:  59; 6HR MAX TEMP:  61; 6HR PCP:  0.48;

IOWA CITY      CLOUDY    59  58  96 S12       29.99F
6HR MIN TEMP:  59; 6HR MAX TEMP:  61; 6HR PCP:  0.07;

MT. PLEASANT * CLOUDY    59  58  96 SE9       30.01R
MUSCATINE *    MOSUNNY   61  59  94 SE6       30.01S
QUAD CITIES    CLOUDY    61  57  87 S8        29.99F
6HR MIN TEMP:  60; 6HR MAX TEMP:  68; 6HR PCP:  0.32;

$$

IAZ062-063-075>077-085>089-095>099-041300-
   SOUTHEAST IOWA

CITY           SKY/WX    TMP DP  RH WIND       PRES   REMARKS
BURLINGTON     CLOUDY    61  59  93 E7        30.01S
6HR MIN TEMP:  60; 6HR MAX TEMP:  70; 6HR PCP:  0.02;

FAIRFIELD *    MOCLDY    61  57  88 E8        29.99S
FORT MADISON * CLOUDY    61  57  88 E8        30.02R
KEOKUK *       CLOUDY    61  61 100 E6        30.01R
OSKALOOSA *      N/A     60  56  85 E14       29.96F
CENTERVILLE *    N/A     61  61 100 CALM      29.94R
OTTUMWA        CLOUDY    61  59  93 E13       29.94F
6HR MIN TEMP:  60; 6HR MAX TEMP:  70; 6HR PCP: TRACE;

WASHINGTON *   MOCLDY    61  61 100 SE7       30.00S
$$

ABBREVIATIONS USED IN REMARKS
   TC - TEMPERATURES IN CELSIUS
  WCI - WIND CHILL INDEX
   HX - HEAT INDEX
  VSB - VISIBILITY
$$



USA.gov is the U.S. government's official web portal to all federal, state and local government web resources and services.